ANAND

导读

ANAND是印度于2022年11月26日发射的纳米卫星,随PSLV-C54火箭一同升空,属于本次任务搭载的8颗纳米卫星之一。发射在印度萨蒂什·达万航天中心完成,火箭在将主星地球观测卫星EOS-06送入预定轨道后,经轨道调姿完成了包括ANAND在内所有搭载星的部署,拓展印度航天微小卫星应用实践。

Basic Information
目录编号:
54366
目录名称:
ANAND
国际标识:
2022-158F
轨道中心:
EARTH
卫星名称:
ANAND
卫星全名:
--
卫星状态:
已陨落 最后检测时间 2024-09-21
发射日期:
2022-11-26 UTC
国别 :
印度 (IN)
星等 :
--
Orbit Information
数据来源 国际轨道数据
星历时间: 2024-09-22T01:30:46+0800
轨道信息已过期660天
半长轴: 6515.961km
偏心率: 0.0013723
轨道倾角: 97.406°
近地点辐角 284.787°
升交点赤经 20.503°
平近点角 75.191°
近地点: 128.884km
远地点: 146.768km
周期: 87.242分钟
每日圈数: 16.505745
Detailed Information
使用方式:
暂无